This is the latest recevied weather packets stored in our database for station/object EA6AMR-10. If no packets are shown the sender has not sent any weather packets the latest 10 day(s).
| Time | Temp. | Humidity | Pressure | Rain* | Wind** | Luminosity | Snow |
|---|---|---|---|---|---|---|---|
| 1777078757 | 13.89° C | 45% | 1018.2 hPa | - | - | - | - |
| 1777077889 | 14.44° C | 45% | 1018.3 hPa | - | - | - | - |
| 1777077857 | 14.44° C | 45% | 1018.3 hPa | - | - | - | - |
| 1777076957 | 14.44° C | 45% | 1018.3 hPa | - | - | - | - |
| 1777076057 | 15° C | 46% | 1018.4 hPa | - | - | - | - |
| 1777075156 | 15.56° C | 45% | 1018.4 hPa | - | - | - | - |
| 1777074256 | 16.11° C | 45% | 1018.4 hPa | - | - | - | - |
| 1777073356 | 16.67° C | 46% | 1018.4 hPa | - | - | - | - |
| 1777072456 | 16.67° C | 45% | 1018.4 hPa | - | - | - | - |
| 1777071556 | 16.67° C | 45% | 1018.4 hPa | - | - | - | - |
| 1777070655 | 16.67° C | 44% | 1018.6 hPa | - | - | - | - |
| 1777069755 | 17.22° C | 44% | 1019 hPa | - | - | - | - |
| 1777068855 | 16.67° C | 44% | 1019.2 hPa | - | - | - | - |
| 1777067955 | 16.67° C | 44% | 1019.3 hPa | - | - | - | - |
| 1777067055 | 16.67° C | 44% | 1019.2 hPa | - | - | - | - |
| 1777066154 | 17.22° C | 44% | 1019.3 hPa | - | - | - | - |
| 1777065254 | 17.22° C | 43% | 1019.3 hPa | - | - | - | - |
| 1777064354 | 17.22° C | 43% | 1019.3 hPa | - | - | - | - |
| 1777063453 | 17.22° C | 44% | 1019.1 hPa | - | - | - | - |
| 1777062559 | 17.22° C | 44% | 1018.9 hPa | - | - | - | - |
| 1777061659 | 17.78° C | 43% | 1018.8 hPa | - | - | - | - |
| 1777060758 | 17.78° C | 44% | 1018.9 hPa | - | - | - | - |
| 1777059858 | 18.33° C | 44% | 1019 hPa | - | - | - | - |
| 1777058958 | 18.33° C | 44% | 1018.8 hPa | - | - | - | - |
| 1777058058 | 18.89° C | 44% | 1018.5 hPa | - | - | - | - |
* Rain since midnight (hover to see other rain measurements)
** Current wind speed in m/s (hover to see current wind gust speed)